{"data":{"norad_id":58610,"intl_designator":"2023-200X","name":"STARLINK-31089","alt_names":[],"object_type":"PAYLOAD","status":"ACTIVE","operator":null,"country":"US","launch_date":"2023-12-19","launch_site_code":"AFETR","launch_vehicle":null,"mission":null,"orbit_class":"UNKNOWN","rcs_meters":null,"size_class":null,"mass_kg":null,"dimensions":null,"purposes":["comms"],"wikipedia_slug":null,"has_3d_model":false,"image_url":null,"decayed_at":null,"tle_current":{"epoch":"2026-05-25T04:01:23.844576Z","epoch_age_seconds":57877,"freshness":"FRESH","line1":"1 58610U 23200X   26145.16763709 -.00000690  00000+0 -15568-4 0  9999","line2":"2 58610  43.0030  97.1884 0001332 273.7599  86.3101 15.27565172135302","mean_motion":15.27565172,"eccentricity":0.0001332,"inclination_deg":43.003,"raan_deg":97.1884,"arg_perigee_deg":273.7599,"mean_anomaly_deg":86.3101,"bstar":-1.5568e-5,"rev_number":13530,"period_min":94.267663756345,"perigee_km":482.17958086299,"apogee_km":484.00741266733,"semimajor_km":6861.2304967652,"source":"CELESTRAK","updated_at":"2026-05-25T13:38:18.704680Z"}}}